SCP
0 0 0 0 0 0 0 0 0 0 0 0 0 0 0 0 0 0 0 0 0 0 0 0 0 0 0 0 0 0 0 0 0 0 0 0 0 0 0 0 0 0 0 0
0 0 0 0 0 0 0 0 0 0 0 0 0 0 0 0 0 0 0 0 0 0 0 0 0 0 0 0 0 0 0 0 0 0 0 0 0 0 0 0 0 0 0 0
0 0 0 0 0 0 0 0 0 0 0 0 0 0 0 0 0 0 0 0 0 0 0 0 0 0 0 0 0 0 0 0 0 0 0 0 0 0 0 0 0 0 0 0
0 0 0 0 0 0 0 0 0 0 0 0 0 0 0 0 0 0 0 0 0 0 0 0 0 0 0 0 0 0 0 0 0 0 0 0 0 0 0 0 0 0 0 0
0 0 0 0 0 0 0 0 0 0 0 0 0 0 0 0 0 0 0 0 0 0 0 0 0 0 0 0 0 0 0 0 0 0 0 0 0 0 0 0 0 0 0 0
0 0 0 0 0 0 0 0 0 0 0 0 0 0 0 0 0 0 0 0 0 0 0 0 0 0 0 0 0 0 0 0 0 0 0 0 0 0 0 0 0 0 0 0
0 0 0 0 0 0 0 0 0 0 0 0 0 0 0 0 0 0 0 0 0 0 0 0 0 0 0 0 0 0 0 0 0 0 0 0 0 0 0 0 0 0 0 0
0 0 0 0 0 0 0 0 0 0 0 0 0 0 0 0 0 0 0 -0 0 0 0 0 0 0 0 0 0 0 0 0 0 0 0 0 0 0 0 0 0 0 0 0
0 0 0 0 0 0 0 0 0 0 0 0 0 0 0 0 0 0 0 0 0 0 0 0 0 0 0 0 0 0 0 0 0 0 0 0 0 0 0 0 0 0 0 0
0 0 0 0 0 0 0 0 0 0 0 0 0 0 0 0 0 0 0 0 0 0 0 0 0 0 0 0 0 0 0 0 0 0 0 0 0 0 0 0 0 0 0 0
0 0 0 0 0 0 0 0 0 0 0 0 0 0 0 0 0 0 0 0 0 0 0 0 0 0 0 0 0 0 0 0 0 0 0 0 0 0 0 0 0 0 0 0
0 0 0 0 0 0 0 0 0 0 0 0 0 0 0 0 0 0 0 0 0 -0 -0 -0 -0 -0 -0 -0 -0 0 0 0 0 0 0 0 0 0 0 0 0 0 0 0
0 0 0 0 0 0 0 0 0 0 0 0 0 0 0 0 0 0 0 0 -0 -0 -0 -0 -0 -0 -0 -0 0 0 0 0 0 0 0 0 0 0 0 0 0 0 0 0
0 0 0 0 0 0 0 0 0 0 0 0 0 0 0 0 0 0 0 0 -0 -0 -0 -0 -0 -0 0 0 0 0 0 0 0 0 0 0 0 0 0 0 0 0 0 0
0 0 0 0 0 0 0 0 0 0 0 0 0 0 0 0 0 -0 -0 -0 -0 -0 -0 -0 -0 0 0 0 0 0 0 0 0 0 0 0 0 0 0 0 0 0 0 0
0 0 0 0 0 0 0 0 0 0 0 0 0 0 0 0 0 0 -0 -0 -0 -0 -0 -0 0 0 0 0 0 0 0 0 0 0 0 0 0 0 0 0 0 0 0 0
0 0 0 0 0 0 0 0 0 0 0 0 0 0 0 0 0 -0 -0 -0 -0 -0 0 0 0 0 0 0 -0 -0 -0 -0 -0 0 0 0 0 0 0 0 0 0 0 0
0 0 0 0 0 0 0 0 0 0 0 0 0 0 0 0 0 0 0 0 0 0 0 0 0 0 0 -0 -0 -0 -0 -0 -0 -0 -0 -0 0 0 0 0 0 0 0 0
0 0 0 0 0 0 0 0 0 0 0 0 0 0 0 0 0 0 0 0 0 0 0 0 0 -0 -0 -0 -0 -0 -0 -0 -0 -0 -0 -0 0 0 0 0 0 0 0 0
0 0 0 0 0 0 0 0 0 0 0 0 0 0 0 0 0 0 0 0 0 0 0 -0 0 -0 -0 -0 -0 -0 -0 -0 -0 -0 -0 -0 0 0 0 0 0 0 0 0
0 0 0 0 0 0 0 0 0 0 0 0 0 0 0 0 0 0 0 0 0 0 -0 -0 -0 -0 -0 -0 -0 -0 -0 -0 -0 -0 -0 -0 -0 0 0 0 0 0 0 0
0 0 0 0 0 0 0 0 0 0 0 0 0 0 0 0 0 0 -0 -0 -0 -0 -0 -0 -0 -0 -0 -0 -0 -0 -0 -0 -0 -0 -0 -0 -0 0 0 0 0 0 0 0
0 0 0 0 0 0 0 0 0 0 0 0 0 0 0 0 -0 -0 -0 -0 -0 -0 -0 -0 -0 -0 -0 -0 -0 0 0 0 -0 -0 -0 -0 -0 -0 0 0 0 0 0 0
0 0 0 0 0 0 0 0 0 0 0 0 0 0 0 -0 -0 -0 -0 -0 -0 -0 -0 -0 -0 -0 -0 -0 -0 0 0 0 0 -0 -0 -0 -0 -0 0 0 0 0 0 0
0 0 0 0 0 0 0 0 0 0 0 0 -0 -0 -0 -0 -0 -0 -0 -0 -0 -0 -0 -0 -0 0 0 0 0 0 0 0 -0 -0 -0 -0 0 -0 -0 0 0 0 0 0
0 0 0 0 0 0 0 0 0 0 0 0 0 0 0 0 0 0 0 0 -0 -0 0 0 0 0 0 0 0 0 0 0 0 0 0 -0 0 -0 -0 0 0 0 0 0
Wind_Speed_500mb
27 13 40 48 23 13 17 10 21 14 27 17 21 30 28 48 44 47 59 62 63 59 49 56 72 63 66 68 65 66 66 69 73 73 71 71 71 67 66 65 64 60 57 51
11 37 37 15 20 19 22 19 25 8 11 18 21 31 18 31 25 39 53 59 70 63 58 53 71 72 67 70 71 64 64 68 69 72 75 76 74 72 68 67 68 67 63 60
29 10 25 22 16 31 28 36 7 7 10 11 7 13 10 14 38 54 67 73 70 68 66 65 60 78 70 68 71 70 69 70 66 70 71 77 78 77 76 80 77 75 72 67
21 30 35 32 29 26 27 13 12 7 2 9 6 11 14 11 24 24 46 61 70 83 79 73 71 76 78 71 69 70 75 77 72 74 77 81 85 87 86 84 81 82 78 74
27 20 21 34 50 24 24 18 14 10 10 3 17 6 13 23 29 22 30 53 62 66 66 80 82 70 73 76 76 73 75 81 83 87 84 81 84 84 83 84 84 84 80 77
15 32 21 17 9 26 12 10 5 4 4 17 41 18 17 23 20 12 35 56 56 32 45 61 71 77 75 67 85 80 74 73 86 97 95 94 88 88 88 87 86 85 84 81
35 20 9 19 15 11 19 17 7 12 14 15 12 16 37 13 16 15 26 38 36 30 41 31 28 59 64 66 69 78 78 73 79 90 99 102 101 97 96 95 89 87 89 90
30 20 29 14 19 16 18 26 10 17 10 12 15 13 15 26 58 72 69 68 56 43 26 24 24 22 21 38 74 74 75 77 82 86 91 98 99 106 108 108 103 99 95 91
21 13 10 9 8 20 9 22 16 7 5 3 7 13 18 19 16 10 14 22 28 30 33 37 34 33 29 27 31 36 50 60 67 81 89 94 99 104 109 112 111 109 106 103
4 4 7 36 10 10 12 16 9 7 11 17 9 8 12 4 12 16 23 29 34 36 35 39 38 37 37 39 37 28 33 45 61 67 74 83 92 100 103 107 113 116 113 110
2 8 7 19 22 31 10 8 4 1 9 8 5 11 16 16 12 16 15 20 23 25 33 38 42 54 65 58 52 36 35 38 50 57 68 77 84 93 99 106 108 110 113 114
8 8 4 18 9 18 27 27 14 8 13 8 5 10 5 18 17 15 20 27 24 34 42 51 62 60 51 58 53 55 53 49 53 53 53 60 71 80 93 103 109 108 110 111
18 6 5 10 9 3 18 15 12 5 5 10 9 12 3 4 5 13 19 15 38 52 57 61 60 55 62 64 69 64 59 58 53 54 62 62 57 59 69 87 100 107 110 111
38 9 16 20 9 11 12 13 17 23 13 34 23 27 41 32 11 8 11 40 57 59 55 62 56 67 67 73 68 69 65 61 63 58 55 57 63 66 65 71 85 97 104 109
15 13 9 5 9 7 7 25 32 32 39 17 38 32 51 33 9 5 22 32 37 43 43 39 58 65 66 68 63 60 62 65 72 67 59 60 62 69 77 81 82 83 95 102
8 4 10 3 3 10 7 19 14 22 23 21 26 17 37 27 13 24 17 27 19 32 51 55 51 54 44 55 62 62 74 80 75 69 73 78 79 75 77 80 86 86 88 96
21 10 6 9 4 6 25 25 20 15 13 22 24 46 41 17 14 19 15 33 38 37 54 41 27 37 42 59 71 76 75 87 91 89 85 83 80 81 79 76 80 84 86 89
21 15 6 5 7 11 15 3 24 35 33 27 21 17 18 37 48 33 23 20 25 29 28 29 38 50 62 75 89 104 107 105 103 99 104 101 95 95 91 78 79 82 83 89
16 12 6 9 7 12 15 12 14 16 2 27 28 30 33 42 20 11 17 28 35 41 47 57 68 77 83 92 97 102 104 107 106 102 99 102 93 93 91 93 85 85 85 89
13 14 8 6 9 12 12 12 17 11 4 31 39 31 37 40 10 2 48 61 63 63 70 80 86 93 97 101 101 106 112 114 121 113 103 98 96 94 91 95 93 89 86 86
11 13 20 8 7 13 19 18 7 10 3 19 32 33 36 12 20 56 62 71 72 81 90 96 103 107 108 104 109 122 127 130 121 120 118 108 104 100 98 94 96 91 89 87
16 13 13 7 6 15 27 7 4 7 15 27 29 27 37 42 69 78 74 65 67 78 101 107 117 122 117 113 112 122 130 122 118 115 124 122 112 106 102 98 100 96 93 91
7 11 12 8 7 25 52 55 28 18 10 20 23 33 44 58 78 96 108 109 109 102 110 115 118 131 129 110 103 120 130 121 122 125 120 125 115 113 104 102 98 102 95 96
4 16 7 11 1 21 29 26 30 22 16 22 32 45 52 58 67 88 97 101 107 102 100 99 100 112 136 120 122 118 118 116 113 116 118 121 117 118 114 106 98 101 100 105
6 14 5 12 17 32 15 35 28 26 28 29 34 38 44 54 61 69 87 92 87 92 94 93 103 112 119 119 119 115 103 106 118 110 117 118 115 115 110 105 104 102 102 105
14 6 2 4 10 2 8 30 27 39 38 39 43 49 50 53 60 69 80 88 95 99 103 106 104 100 107 109 113 114 110 103 91 109 104 97 98 101 100 106 107 100 102 98
Wind_Direction_500mb
186 172 209 208 204 204 184 204 213 231 235 232 239 252 245 250 247 255 271 280 282 277 268 258 240 241 245 240 234 227 222 221 223 226 229 232 232 234 237 241 244 247 248 247
165 214 215 157 195 209 223 225 238 258 247 200 251 258 219 233 247 258 274 277 275 275 271 269 239 234 241 245 241 231 226 225 225 231 232 235 238 240 243 247 247 247 249 248
192 202 165 185 193 208 224 226 227 229 321 327 326 272 227 260 266 271 265 267 265 269 265 263 250 232 237 242 245 240 231 230 229 233 233 235 237 241 242 243 246 247 247 248
214 242 192 189 202 199 217 179 208 216 293 253 50 283 229 234 256 258 261 263 263 261 256 254 257 240 233 241 249 247 239 235 235 235 233 233 236 239 244 245 247 248 248 248
212 176 203 192 206 174 222 159 190 177 227 226 256 292 295 207 249 255 261 265 267 270 269 255 253 253 246 243 246 248 247 241 240 240 237 238 240 245 247 248 250 251 252 249
197 198 186 199 154 189 151 87 88 57 159 238 243 198 246 243 254 238 251 268 275 313 286 271 261 253 253 253 244 244 247 248 242 244 246 244 244 245 244 246 248 251 252 251
208 228 171 187 163 165 172 138 198 217 222 234 223 188 245 246 278 250 248 268 286 287 320 336 300 262 257 254 250 247 246 251 251 246 248 251 254 252 253 253 251 251 251 250
187 201 203 190 201 190 187 186 175 206 192 218 156 210 255 236 239 251 258 265 285 297 313 329 314 303 292 288 263 259 253 253 255 254 253 254 256 255 257 259 257 255 255 256
185 229 148 193 165 161 186 214 216 66 61 99 214 262 308 259 233 257 294 33 46 50 42 33 33 30 20 4 346 291 266 262 267 268 263 259 258 257 258 259 259 259 259 259
163 136 203 193 126 233 167 158 205 198 192 226 237 258 231 165 78 75 79 55 27 14 19 19 15 10 0 355 343 317 303 290 287 284 275 273 270 264 265 262 261 262 262 259
178 119 272 130 196 190 157 186 161 139 193 195 188 246 204 239 136 133 103 35 29 22 14 10 2 349 343 336 339 343 328 309 294 291 286 279 275 270 268 264 265 265 265 263
183 137 144 209 176 184 202 198 165 175 190 198 180 256 113 135 159 115 15 7 35 10 357 347 342 343 345 342 339 326 320 317 317 313 301 286 277 274 272 268 267 267 266 265
163 203 78 1 358 8 203 210 217 211 38 195 186 260 115 253 253 330 347 14 350 345 338 338 340 343 339 340 337 334 329 328 320 313 309 299 291 287 278 271 269 267 266 265
158 160 190 191 187 144 188 189 199 199 215 230 222 257 263 254 284 1 355 342 339 333 332 329 334 332 333 332 335 338 337 332 334 323 310 304 295 293 293 287 275 268 266 266
148 186 154 200 75 101 193 209 203 207 223 200 236 233 259 264 141 175 318 334 320 317 318 320 316 322 327 332 338 338 337 333 330 329 317 306 300 298 303 301 290 280 269 265
170 239 133 238 213 143 236 233 225 239 243 251 253 259 254 270 297 281 344 307 303 310 304 305 313 320 342 342 341 339 330 329 328 322 319 323 320 314 305 303 299 288 278 271
155 116 84 249 195 44 269 208 219 217 198 217 226 238 264 305 272 286 283 302 304 299 309 326 351 340 341 335 333 331 327 320 318 314 312 317 322 319 309 305 300 293 283 275
158 131 104 186 69 209 277 146 210 217 233 233 263 275 266 271 279 303 332 14 39 26 1 347 332 326 324 323 323 320 317 315 313 309 306 308 311 311 310 302 296 293 290 278
152 135 141 153 206 301 300 231 180 170 67 14 280 256 287 315 315 129 29 7 351 336 325 320 317 318 317 320 320 314 311 312 314 314 312 311 309 307 307 300 300 294 289 280
142 140 131 89 152 206 245 283 205 106 177 13 16 19 2 342 292 40 338 329 323 319 318 316 313 312 313 316 314 312 310 306 308 312 311 312 309 303 301 300 296 294 285 281
160 172 197 177 199 281 263 298 83 105 213 8 13 3 359 352 307 308 318 319 320 317 316 315 312 310 311 312 311 309 308 306 309 308 304 302 304 303 297 297 291 290 285 281
170 151 189 106 102 248 0 359 190 34 24 357 -0 358 338 320 318 320 321 322 322 319 316 314 311 306 305 308 308 303 301 308 306 305 299 297 297 298 296 295 291 285 281 275
190 187 168 170 174 90 65 89 75 49 34 2 347 336 331 325 324 321 318 320 320 320 316 314 310 306 306 309 305 302 301 304 302 301 299 295 294 292 293 294 290 284 277 268
58 12 117 133 17 115 103 64 38 39 38 351 339 334 332 324 323 318 319 320 320 320 317 315 311 307 304 306 304 302 302 303 301 299 299 295 294 290 290 292 287 280 273 264
354 342 67 85 69 133 96 28 16 6 352 349 344 340 335 328 325 322 322 321 317 316 317 314 311 310 307 306 302 301 302 299 301 297 296 294 293 291 289 289 283 278 271 265
10 26 40 122 92 8 310 348 348 352 354 351 349 346 344 338 331 328 325 324 324 323 324 322 317 314 312 309 303 302 303 305 299 300 301 297 294 291 288 286 283 275 270 266
Wind_Speed_850mb
27 13 40 48 23 13 17 10 21 14 27 17 21 30 28 48 44 47 59 62 63 59 49 56 72 63 66 68 65 66 66 69 73 73 71 71 71 67 66 65 64 60 57 51
11 37 37 15 20 19 22 19 25 8 11 18 21 31 18 31 25 39 53 59 70 63 58 53 71 72 67 70 71 64 64 68 69 72 75 76 74 72 68 67 68 67 63 60
29 10 25 22 16 31 28 36 7 7 10 11 7 13 10 14 38 54 67 73 70 68 66 65 60 78 70 68 71 70 69 70 66 70 71 77 78 77 76 80 77 75 72 67
21 30 35 32 29 26 27 13 12 7 2 9 6 11 14 11 24 24 46 61 70 83 79 73 71 76 78 71 69 70 75 77 72 74 77 81 85 87 86 84 81 82 78 74
27 20 21 34 50 24 24 18 14 10 10 3 17 6 13 23 29 22 30 53 62 66 66 80 82 70 73 76 76 73 75 81 83 87 84 81 84 84 83 84 84 84 80 77
15 32 21 17 9 26 12 10 5 4 4 17 41 18 17 23 20 12 35 56 56 32 45 61 71 77 75 67 85 80 74 73 86 97 95 94 88 88 88 87 86 85 84 81
35 20 9 19 15 11 19 17 7 12 14 15 12 16 37 13 16 15 26 38 36 30 41 31 28 59 64 66 69 78 78 73 79 90 99 102 101 97 96 95 89 87 89 90
30 20 29 14 19 16 18 26 10 17 10 12 15 13 15 26 58 72 69 68 56 43 26 24 24 22 21 38 74 74 75 77 82 86 91 98 99 106 108 108 103 99 95 91
21 13 10 9 8 20 9 22 16 7 5 3 7 13 18 19 16 10 14 22 28 30 33 37 34 33 29 27 31 36 50 60 67 81 89 94 99 104 109 112 111 109 106 103
4 4 7 36 10 10 12 16 9 7 11 17 9 8 12 4 12 16 23 29 34 36 35 39 38 37 37 39 37 28 33 45 61 67 74 83 92 100 103 107 113 116 113 110
2 8 7 19 22 31 10 8 4 1 9 8 5 11 16 16 12 16 15 20 23 25 33 38 42 54 65 58 52 36 35 38 50 57 68 77 84 93 99 106 108 110 113 114
8 8 4 18 9 18 27 27 14 8 13 8 5 10 5 18 17 15 20 27 24 34 42 51 62 60 51 58 53 55 53 49 53 53 53 60 71 80 93 103 109 108 110 111
18 6 5 10 9 3 18 15 12 5 5 10 9 12 3 4 5 13 19 15 38 52 57 61 60 55 62 64 69 64 59 58 53 54 62 62 57 59 69 87 100 107 110 111
38 9 16 20 9 11 12 13 17 23 13 34 23 27 41 32 11 8 11 40 57 59 55 62 56 67 67 73 68 69 65 61 63 58 55 57 63 66 65 71 85 97 104 109
15 13 9 5 9 7 7 25 32 32 39 17 38 32 51 33 9 5 22 32 37 43 43 39 58 65 66 68 63 60 62 65 72 67 59 60 62 69 77 81 82 83 95 102
8 4 10 3 3 10 7 19 14 22 23 21 26 17 37 27 13 24 17 27 19 32 51 55 51 54 44 55 62 62 74 80 75 69 73 78 79 75 77 80 86 86 88 96
21 10 6 9 4 6 25 25 20 15 13 22 24 46 41 17 14 19 15 33 38 37 54 41 27 37 42 59 71 76 75 87 91 89 85 83 80 81 79 76 80 84 86 89
21 15 6 5 7 11 15 3 24 35 33 27 21 17 18 37 48 33 23 20 25 29 28 29 38 50 62 75 89 104 107 105 103 99 104 101 95 95 91 78 79 82 83 89
16 12 6 9 7 12 15 12 14 16 2 27 28 30 33 42 20 11 17 28 35 41 47 57 68 77 83 92 97 102 104 107 106 102 99 102 93 93 91 93 85 85 85 89
13 14 8 6 9 12 12 12 17 11 4 31 39 31 37 40 10 2 48 61 63 63 70 80 86 93 97 101 101 106 112 114 121 113 103 98 96 94 91 95 93 89 86 86
11 13 20 8 7 13 19 18 7 10 3 19 32 33 36 12 20 56 62 71 72 81 90 96 103 107 108 104 109 122 127 130 121 120 118 108 104 100 98 94 96 91 89 87
16 13 13 7 6 15 27 7 4 7 15 27 29 27 37 42 69 78 74 65 67 78 101 107 117 122 117 113 112 122 130 122 118 115 124 122 112 106 102 98 100 96 93 91
7 11 12 8 7 25 52 55 28 18 10 20 23 33 44 58 78 96 108 109 109 102 110 115 118 131 129 110 103 120 130 121 122 125 120 125 115 113 104 102 98 102 95 96
4 16 7 11 1 21 29 26 30 22 16 22 32 45 52 58 67 88 97 101 107 102 100 99 100 112 136 120 122 118 118 116 113 116 118 121 117 118 114 106 98 101 100 105
6 14 5 12 17 32 15 35 28 26 28 29 34 38 44 54 61 69 87 92 87 92 94 93 103 112 119 119 119 115 103 106 118 110 117 118 115 115 110 105 104 102 102 105
14 6 2 4 10 2 8 30 27 39 38 39 43 49 50 53 60 69 80 88 95 99 103 106 104 100 107 109 113 114 110 103 91 109 104 97 98 101 100 106 107 100 102 98
Wind_Direction_850mb
186 172 209 208 204 204 184 204 213 231 235 232 239 252 245 250 247 255 271 280 282 277 268 258 240 241 245 240 234 227 222 221 223 226 229 232 232 234 237 241 244 247 248 247
165 214 215 157 195 209 223 225 238 258 247 200 251 258 219 233 247 258 274 277 275 275 271 269 239 234 241 245 241 231 226 225 225 231 232 235 238 240 243 247 247 247 249 248
192 202 165 185 193 208 224 226 227 229 321 327 326 272 227 260 266 271 265 267 265 269 265 263 250 232 237 242 245 240 231 230 229 233 233 235 237 241 242 243 246 247 247 248
214 242 192 189 202 199 217 179 208 216 293 253 50 283 229 234 256 258 261 263 263 261 256 254 257 240 233 241 249 247 239 235 235 235 233 233 236 239 244 245 247 248 248 248
212 176 203 192 206 174 222 159 190 177 227 226 256 292 295 207 249 255 261 265 267 270 269 255 253 253 246 243 246 248 247 241 240 240 237 238 240 245 247 248 250 251 252 249
197 198 186 199 154 189 151 87 88 57 159 238 243 198 246 243 254 238 251 268 275 313 286 271 261 253 253 253 244 244 247 248 242 244 246 244 244 245 244 246 248 251 252 251
208 228 171 187 163 165 172 138 198 217 222 234 223 188 245 246 278 250 248 268 286 287 320 336 300 262 257 254 250 247 246 251 251 246 248 251 254 252 253 253 251 251 251 250
187 201 203 190 201 190 187 186 175 206 192 218 156 210 255 236 239 251 258 265 285 297 313 329 314 303 292 288 263 259 253 253 255 254 253 254 256 255 257 259 257 255 255 256
185 229 148 193 165 161 186 214 216 66 61 99 214 262 308 259 233 257 294 33 46 50 42 33 33 30 20 4 346 291 266 262 267 268 263 259 258 257 258 259 259 259 259 259
163 136 203 193 126 233 167 158 205 198 192 226 237 258 231 165 78 75 79 55 27 14 19 19 15 10 0 355 343 317 303 290 287 284 275 273 270 264 265 262 261 262 262 259
178 119 272 130 196 190 157 186 161 139 193 195 188 246 204 239 136 133 103 35 29 22 14 10 2 349 343 336 339 343 328 309 294 291 286 279 275 270 268 264 265 265 265 263
183 137 144 209 176 184 202 198 165 175 190 198 180 256 113 135 159 115 15 7 35 10 357 347 342 343 345 342 339 326 320 317 317 313 301 286 277 274 272 268 267 267 266 265
163 203 78 1 358 8 203 210 217 211 38 195 186 260 115 253 253 330 347 14 350 345 338 338 340 343 339 340 337 334 329 328 320 313 309 299 291 287 278 271 269 267 266 265
158 160 190 191 187 144 188 189 199 199 215 230 222 257 263 254 284 1 355 342 339 333 332 329 334 332 333 332 335 338 337 332 334 323 310 304 295 293 293 287 275 268 266 266
148 186 154 200 75 101 193 209 203 207 223 200 236 233 259 264 141 175 318 334 320 317 318 320 316 322 327 332 338 338 337 333 330 329 317 306 300 298 303 301 290 280 269 265
170 239 133 238 213 143 236 233 225 239 243 251 253 259 254 270 297 281 344 307 303 310 304 305 313 320 342 342 341 339 330 329 328 322 319 323 320 314 305 303 299 288 278 271
155 116 84 249 195 44 269 208 219 217 198 217 226 238 264 305 272 286 283 302 304 299 309 326 351 340 341 335 333 331 327 320 318 314 312 317 322 319 309 305 300 293 283 275
158 131 104 186 69 209 277 146 210 217 233 233 263 275 266 271 279 303 332 14 39 26 1 347 332 326 324 323 323 320 317 315 313 309 306 308 311 311 310 302 296 293 290 278
152 135 141 153 206 301 300 231 180 170 67 14 280 256 287 315 315 129 29 7 351 336 325 320 317 318 317 320 320 314 311 312 314 314 312 311 309 307 307 300 300 294 289 280
142 140 131 89 152 206 245 283 205 106 177 13 16 19 2 342 292 40 338 329 323 319 318 316 313 312 313 316 314 312 310 306 308 312 311 312 309 303 301 300 296 294 285 281
160 172 197 177 199 281 263 298 83 105 213 8 13 3 359 352 307 308 318 319 320 317 316 315 312 310 311 312 311 309 308 306 309 308 304 302 304 303 297 297 291 290 285 281
170 151 189 106 102 248 0 359 190 34 24 357 -0 358 338 320 318 320 321 322 322 319 316 314 311 306 305 308 308 303 301 308 306 305 299 297 297 298 296 295 291 285 281 275
190 187 168 170 174 90 65 89 75 49 34 2 347 336 331 325 324 321 318 320 320 320 316 314 310 306 306 309 305 302 301 304 302 301 299 295 294 292 293 294 290 284 277 268
58 12 117 133 17 115 103 64 38 39 38 351 339 334 332 324 323 318 319 320 320 320 317 315 311 307 304 306 304 302 302 303 301 299 299 295 294 290 290 292 287 280 273 264
354 342 67 85 69 133 96 28 16 6 352 349 344 340 335 328 325 322 322 321 317 316 317 314 311 310 307 306 302 301 302 299 301 297 296 294 293 291 289 289 283 278 271 265
10 26 40 122 92 8 310 348 348 352 354 351 349 346 344 338 331 328 325 324 324 323 324 322 317 314 312 309 303 302 303 305 299 300 301 297 294 291 288 286 283 275 270 266